Location: Doux
(49.5045°N, 4.4321°E)
Time: 05:28:11
(UTC+00:00)

Cosmos 1862 Rocket - Pass Details

Date: 23 May 2024
Orbit: 601 x 629 km, 82.5° (Epoch: 19 June)

Event Time Altitude Azimuth Distance (km) Brightness Sun altitude
Exits shadow 01:04:20 32° 229° (SW) 1,049 4.2 -17.3°
Maximum altitude 01:05:57 49° 285° (WNW) 787 4.0 -17.2°
Drops below altitude 10° 01:10:11 10° 0° (N) 1,968 7.2 -17.0°
Sets 01:12:29 0° 6° (N) 2,880 8.5 -16.8°
